Погода в Апуке

Погода в Апуке : погода сейчас, прогноз погоды и архив. Всё, что Вы хотите узнать о погоде в Апуке!

Хотите узнать прогноз погоды в Апуке? Тогда Вам сюда: Погода в Апуке

Поиск расширенной информации на нашем сайте:

Другие новости

Новости СМИ2

Главная страница сайта

Новости сайта

02.10.2013

Напоминаем, что на нашем новом сайте вы можете получить высокодетализированные прогнозы погоды по пунктам России, СНГ и мира (включающие важные для авиации метеовеличины, такие как направление и скорость ветра, видимость, явления погоды, количество и форма облачности, нижняя и верхняя граница облачности), а также ознакомиться с разнообразными материалами по авиационной метеорологии и подборкой полезных ссылок на эту тему.

Сайт Метеоцентр.Азия посвящён разработке технологий оптимизации авиаметеорологического обслуживания, включая проектирование и перспективное создание нескольких автоматизированных авиаметеорологических систем:
- система выпуска высокодетальных прогностических карт явлений погоды для нижнего воздушного пространства по России и ближнему зарубежью;
- система верификации прогнозов TAF (выпускаемых синоптиками официальных АМСГ РФ и ближнего зарубежья) и AUTOTAF (выпускаемых сайтом Метеоцентр.Азия) - выявление ошибок, онлайн-сопоставление с фактической погодой METAR, автоматическое внесение коррективов в прогнозы при резком отклонении фактической погоды от прогноза, подсчёт оправдываемости прогнозов по элементам и в целом;
- система обработки, анализа и отображения авиаметеорологической информации для применения провайдерами метеорологической информации.


Погода в Апуке - сегодня

Время (UTC), дата Ветер
(°,м/с) 
Видим.   Явления Облачность Т
(°С)
Тd
(°С)
f(%) Тe
(°С)
Pmin
(гПа)
dP
(гПа)
Po
(мм)
O2
(г/м3)
Тmin Tmax R s Состояние
почвы
21 17.02.17 050 (СВ) 20000 м    6/0 верхняя 
[Ci fib]
-21.5   1016.4  -2  762    -18.8      20  неравномерный
сухой снег
100% 
00 18.02.17 050 (СВ) 20000 м    6/0 верхняя 
[Ci fib]
-14.1   1016.7  0.3  762             
03 18.02.17 050 (СВ) 20000 м    3/0 верхняя 
[Ci fib]
-14.1 -18.4 70 -20  1017  0.3  762  325           
06 18.02.17 050 (СВ) 20000 м    5/0 верхняя 
[Ci fib]
-13.9 -19.1 65 -20  1016.1  0.1  762  325           
09 18.02.17 050 (СВ) 20000 м    5/0 верхняя 
[Ci fib]
-14.1 -19.3 65 -21  1016.1  762  325    -13.9       
12 18.02.17 050 (СВ) 20000 м    6/6 600 м 
[Sc]
-14.3 -19.4 65 -22  1016.2  0.1  762  325           
15 18.02.17 050 (СВ) 20000 м    6/6 600 м 
[Sc]
-13.4 -18.6 65 -21  1016.5  0.2  762  324           
18 18.02.17 050 (СВ) 20000 м    6/6 600 м 
[Sc]
-13.1 -18.3 65 -20  1015.6  0.9  761  324           
21 18.02.17 050 (СВ) 20000 м    9/4 600 м верхняя 
[Sc|Ci fib]
-12.5 -17.7 65 -18  1015.5  -0.1  761  323  -14.3      20  неравномерный
сухой снег
100% 
00 19.02.17 050 (СВ) 20000 м    9/4 600 м верхняя 
[Sc|Ci fib]
-10.5 -14.9 70 -16  1014.6  -0.9  761  320           
03 19.02.17 050 (СВ) 8{12}  20000 м  позёмок  9/0 верхняя 
[Ci fib]
-9.7 -13.3 75 -16  1013.8  -0.8  760  319           
06 19.02.17 050 (СВ) 8{12}  20000 м  позёмок  9/3 600 м верхняя 
[Sc|Ci fib]
-10.5 -14.1 75 -17  1013.3  -0.5  760  320           
09 19.02.17 050 (СВ) 8{12}  20000 м  позёмок  9/0 верхняя 
[Ci fib]
-10 -13.6 75 -16  1013.5  0.2  760  319    -9.7       
12 19.02.17 050 (СВ) 10-12{12}  20000 м  позёмок  9/6 600 м верхняя 
[Sc|Ci fib]
-9.5 -14.1 69 -17  1013.1  -0.4  759  318           
15 19.02.17 050 (СВ) 10-12{14}  20000 м  позёмок  10/10 600 м 
[Sc]
-8.7 -12 77 -16  1013.2  0.1  759  317           
18 19.02.17 050 (СВ) 12-14{14}  20000 м  позёмок  9/0 верхняя 
[Ci fib]
-8.9 -13.5 69 -17  1012.8  -0.4  759  317           
21 19.02.17 050 (СВ) 10-12{14}  20000 м  позёмок  9/9 600 м 
[Sc]
-7.7 -11.2 76 -14  1012.4  -0.4  759  316  -10      20  неравномерный
сухой снег
100% 
00 20.02.17 050 (СВ) 10-12{14}  20000 м  позёмок  10/10 600 м 
[Sc]
-7 -10.8 74 -14  1012.6  0.2  759  315           
03 20.02.17 050 (СВ) 10-12{14}  20000 м  позёмок  8/8 600 м 
[Sc]
-4.6 -8.1 76 -11  1012.3  -0.3  759  312           
06 20.02.17 050 (СВ) 10-12{12}  20000 м  позёмок  10/10 600 м 
[Sc]
-6.2 -9.3 79 -13  1001.6  -0.7  758  314           
09 20.02.17 050 (СВ) 10-12{14}  20000 м  позёмок  10/10 600 м 
[Sc]
-6.6 -9.4 80 -13  1011.2  -0.4  758  314    -4.6       
12 20.02.17 050 (СВ) 10-12{14}  20000 м  позёмок  10/10 600 м 
[Sc]
-6.6 -9.4 80 -13  1010.9  -0.3  758  314           
15 20.02.17 050 (СВ) 10-12{14}  20000 м  позёмок  10/10 600 м 
[Sc]
-7.1 -10 80 -14  1010.1  -0.8  757  314           
18 20.02.17 050 (СВ) 8-12{14}  20000 м  позёмок  10/10 600 м 
[Sc]
-7.3 -10.3 79 -13  1010.1  757  314           
21 20.02.17 050 (СВ) 8{12}  20000 м    10/10 600 м 
[Sc]
-7.5 -10.5 79 -13  1010.2  0.1  757  315  -7.5      26  неравномерный
мокрый или
старый снег
100% 
Время (UTC), дата Ветер
(°,м/с) 
Видим.   Явления Облачность Т
(°С)
Тd
(°С)
f(%) Тe
(°С)
Pmin
(гПа)
dP
(гПа)
Po
(мм)
O2
(г/м3)
Тmin Tmax R s Состояние
почвы

Для получения пояснительной информации подведите курсор к названию столбца.

ПОГОДА в Апуке - архив

Всё, что Вы хотите узнать о погоде в Апуке - удобно и подробно!

Выберите нужную дату (начиная с 1 января 2015* года) и нажмите кнопку "Найти".
Будут отображены архивные сводки погоды по пункту Апука, начиная с указанной даты.


Отображать данные в формате CSV (для использования в таблицах Excel)


Внимание! Наш архив погоды предназначен исключительно для личного некоммерческого использования в познавательных целях. Если Вам необходимы официальные справки о состоянии погоды (для производственных, юридических, коммерческих и т.п. целей), обращайтесь в органы Росгидромета.

*Примечание: данная дата относится к архиву по метеостанциям СССР (Россия, СНГ, Балтия).
Архив по метеостанциям Зарубежной Европы и Азии (кроме Китая) хранится 10 дней, по другим регионам земного шара (Китай, Африка, Америка, Австралия, Океания) - 1 день.

Апука - район местоположения метеостанции


Название, широта, долгота, высота метеостанции:
Апука 60.4°ш. 169.7°д. 5 м над ур. моря [Российская Федерация]

Дополнительная информация

В oтличие oт бoльшинства пoгoдных сайтoв мы публикуем пoдрoбную метеoинфoрмацию в детальнoм прoфессиoнальнoм фoрмате.

Характеристики температуры и влажнoсти вoздуха измеряются на высoте 2 м в тени вдали oт зданий и деревьев.
Скoрoсть ветра измеряется на высoте 10 м (на урoвне рoста челoвека скoрoсть ветра ниже в 1.5-2 раза). Если метеoстанция нахoдится в гoрoде или в лесу, тo скoрoсть ветра занижена на 2-4 м/с пo сравнению с oткрытым местoм. Скoрoсть ветра над акватoриями крупных рек и oзёр, а также на вершинах хoлмoв на 2-5 м/с выше, чем в oбычных услoвиях.
Атмoсфернoе давление в разных тoчках местнoсти мoжет значительнo oтличаться oт давления на метеoстанции, в зависимoсти oт услoвий рельефа (при пoдъёме на 10 м давление пoнижается примернo на 1 мм рт.ст.).